TimeCET,TemperatureF,Dew PointF,Humidity,Sea Level PressureIn,VisibilityMPH,Wind Direction,Wind SpeedMPH,Gust SpeedMPH,PrecipitationIn,Events,Conditions,WindDirDegrees,DateUTC
12:00 AM,48.2,46.4,93,29.65,1.1,East,8.1,-,N/A,,Overcast,100,2013-03-27 23:00:00
12:30 AM,48.2,46.4,93,29.65,1.0,ESE,6.9,-,N/A,,Light Drizzle,110,2013-03-27 23:30:00
1:00 AM,48.2,46.4,93,29.65,1.1,ESE,6.9,-,N/A,,Light Drizzle,110,2013-03-28 00:00:00
1:30 AM,48.2,48.2,100,29.65,1.0,East,8.1,-,N/A,,Light Drizzle,100,2013-03-28 00:30:00
2:00 AM,50.0,48.2,94,29.65,1.3,ESE,4.6,-,N/A,,Overcast,110,2013-03-28 01:00:00
2:30 AM,50.0,48.2,94,29.62,1.9,East,8.1,-,N/A,Rain,Light Rain,100,2013-03-28 01:30:00
3:00 AM,50.0,48.2,94,29.62,-9999.0,SE,4.6,-,N/A,,Overcast,130,2013-03-28 02:00:00
3:30 AM,50.0,48.2,94,29.62,2.2,ESE,4.6,-,N/A,,Light Drizzle,120,2013-03-28 02:30:00
4:00 AM,50.0,48.2,94,29.62,3.7,SE,3.5,-,N/A,,Overcast,130,2013-03-28 03:00:00
4:30 AM,50.0,48.2,94,29.62,1.6,Variable,3.5,-,N/A,,Overcast,0,2013-03-28 03:30:00
5:00 AM,50.0,48.2,94,29.62,0.9,Variable,2.3,-,N/A,,Overcast,0,2013-03-28 04:00:00
5:30 AM,50.0,48.2,94,29.62,3.7,Calm,Calm,-,N/A,,Overcast,0,2013-03-28 04:30:00
6:00 AM,50.0,48.2,94,29.62,3.1,Variable,1.2,-,N/A,Rain,Light Rain,0,2013-03-28 05:00:00
6:30 AM,50.0,48.2,94,29.62,2.2,Variable,2.3,-,N/A,Rain,Light Rain,0,2013-03-28 05:30:00
7:00 AM,50.0,48.2,94,29.62,1.1,SSW,2.3,-,N/A,,Overcast,200,2013-03-28 06:00:00
7:30 AM,50.0,48.2,94,29.65,5.6,Calm,Calm,-,N/A,,Overcast,0,2013-03-28 06:30:00
8:00 AM,50.0,48.2,94,29.65,-9999.0,Calm,Calm,-,N/A,Rain,Light Rain,0,2013-03-28 07:00:00
8:30 AM,51.8,50.0,94,29.65,5.0,Variable,2.3,-,N/A,Rain,Light Rain,0,2013-03-28 07:30:00
9:00 AM,51.8,50.0,94,29.65,3.1,East,3.5,-,N/A,Rain,Light Rain,80,2013-03-28 08:00:00
9:30 AM,51.8,50.0,94,29.68,4.3,Calm,Calm,-,N/A,,Overcast,0,2013-03-28 08:30:00
10:00 AM,53.6,50.0,88,29.68,6.2,Calm,Calm,-,N/A,,Overcast,0,2013-03-28 09:00:00
10:30 AM,53.6,50.0,88,29.68,6.2,Calm,Calm,-,N/A,,Overcast,0,2013-03-28 09:30:00
11:00 AM,55.4,50.0,82,29.68,6.2,Variable,2.3,-,N/A,,Mostly Cloudy,0,2013-03-28 10:00:00
11:30 AM,57.2,50.0,77,29.68,6.2,Variable,1.2,-,N/A,,Overcast,0,2013-03-28 10:30:00
12:00 PM,57.2,50.0,77,29.68,6.2,Variable,3.5,-,N/A,,Mostly Cloudy,0,2013-03-28 11:00:00
12:30 PM,59.0,50.0,72,29.68,6.2,WNW,8.1,-,N/A,,Mostly Cloudy,300,2013-03-28 11:30:00
1:00 PM,59.0,51.8,77,29.68,6.2,WNW,10.4,-,N/A,,Mostly Cloudy,290,2013-03-28 12:00:00
1:30 PM,60.8,53.6,77,29.68,6.2,WNW,13.8,-,N/A,,Overcast,290,2013-03-28 12:30:00
2:00 PM,60.8,51.8,72,29.71,6.2,WNW,17.3,-,N/A,,Overcast,290,2013-03-28 13:00:00
2:30 PM,57.2,50.0,77,29.71,6.2,WNW,17.3,-,N/A,,Overcast,300,2013-03-28 13:30:00
3:00 PM,55.4,50.0,82,29.71,6.2,WNW,17.3,-,N/A,,Overcast,290,2013-03-28 14:00:00
3:30 PM,57.2,50.0,77,29.74,6.2,WNW,18.4,-,N/A,,Overcast,290,2013-03-28 14:30:00
4:00 PM,55.4,48.2,77,29.74,6.2,West,19.6,-,N/A,,Overcast,280,2013-03-28 15:00:00
4:30 PM,55.4,48.2,77,29.74,6.2,WNW,17.3,-,N/A,,Mostly Cloudy,300,2013-03-28 15:30:00
5:00 PM,53.6,46.4,77,29.74,6.2,WNW,16.1,-,N/A,,Overcast,300,2013-03-28 16:00:00
5:30 PM,53.6,46.4,77,29.77,6.2,WNW,17.3,-,N/A,,Overcast,290,2013-03-28 16:30:00
6:00 PM,53.6,44.6,72,29.77,6.2,WNW,13.8,-,N/A,,Overcast,300,2013-03-28 17:00:00
6:30 PM,51.8,44.6,76,29.77,6.2,WNW,10.4,-,N/A,,Overcast,300,2013-03-28 17:30:00
7:00 PM,51.8,44.6,76,29.80,6.2,WNW,9.2,-,N/A,,Overcast,300,2013-03-28 18:00:00
7:30 PM,51.8,44.6,76,29.80,6.2,NW,8.1,-,N/A,,Overcast,310,2013-03-28 18:30:00
8:00 PM,50.0,44.6,82,29.83,6.2,WNW,8.1,-,N/A,,Mostly Cloudy,300,2013-03-28 19:00:00
8:30 PM,50.0,44.6,82,29.83,6.2,West,4.6,-,N/A,,Mostly Cloudy,280,2013-03-28 19:30:00
9:00 PM,48.2,44.6,87,29.83,6.2,WNW,5.8,-,N/A,,Unknown,300,2013-03-28 20:00:00
9:30 PM,50.0,44.6,82,29.83,6.2,WNW,5.8,-,N/A,,Mostly Cloudy,290,2013-03-28 20:30:00
10:00 PM,48.2,44.6,87,29.83,6.2,Variable,3.5,-,N/A,,Mostly Cloudy,0,2013-03-28 21:00:00
10:30 PM,48.2,44.6,87,29.80,6.2,Variable,2.3,-,N/A,,Unknown,0,2013-03-28 21:30:00
11:00 PM,46.4,42.8,87,29.80,6.2,Variable,3.5,-,N/A,,Unknown,0,2013-03-28 22:00:00
11:30 PM,44.6,42.8,93,29.80,4.3,SW,3.5,-,N/A,,Unknown,220,2013-03-28 22:30:00